ECHOSTAR 15

Last updated on Sat Dec 13 2025 00:02:47 GMT+0000 (Coordinated Universal Time)

1 36792U 10034A 25346.03876138 .00000008 00000+0 00000+0 0 9997 2 36792 0.0126 333.9329 0002237 262.5050 99.7218 1.00272866 56441
UTC large
Height (km)
Speed (km/s)
/
Latitude / Longitude
Inclination (degrees)
Orbital Period (minutes)
Azimuth
Elevation
Range (km)
Doppler Factor

Next 0 passes for location: London (51.5072 / 0.1276)

Sorry there are no passes over London.